TimeEDT,TemperatureF,Dew PointF,Humidity,Sea Level PressureIn,VisibilityMPH,Wind Direction,Wind SpeedMPH,Gust SpeedMPH,PrecipitationIn,Events,Conditions,WindDirDegrees,DateUTC
12:56 AM,75.0,66.9,76,29.94,10.0,South,9.2,-,N/A,,Mostly Cloudy,170,2013-05-20 04:56:00
1:56 AM,73.0,66.0,79,29.93,10.0,South,8.1,-,N/A,,Clear,170,2013-05-20 05:56:00
2:56 AM,71.1,64.9,81,29.92,10.0,SE,6.9,-,N/A,,Clear,140,2013-05-20 06:56:00
3:56 AM,70.0,64.9,84,29.93,10.0,South,9.2,-,N/A,,Partly Cloudy,170,2013-05-20 07:56:00
4:56 AM,68.0,64.0,87,29.95,10.0,SSE,3.5,-,N/A,,Scattered Clouds,150,2013-05-20 08:56:00
5:56 AM,66.9,64.0,90,29.94,10.0,SSE,6.9,-,N/A,,Mostly Cloudy,150,2013-05-20 09:56:00
6:56 AM,66.9,64.0,90,29.97,8.0,SSE,9.2,-,N/A,,Clear,150,2013-05-20 10:56:00
7:56 AM,68.0,64.0,87,29.98,8.0,SSE,5.8,-,N/A,,Partly Cloudy,150,2013-05-20 11:56:00
8:56 AM,73.0,66.0,79,29.99,9.0,South,5.8,-,N/A,,Scattered Clouds,180,2013-05-20 12:56:00
9:32 AM,73.4,66.2,78,30.00,8.0,SSW,6.9,-,N/A,,Mostly Cloudy,200,2013-05-20 13:32:00
9:56 AM,73.9,66.9,79,30.00,8.0,SSW,8.1,17.3,N/A,,Overcast,210,2013-05-20 13:56:00
10:47 AM,78.8,68.0,69,30.01,8.0,SSW,9.2,-,N/A,,Mostly Cloudy,210,2013-05-20 14:47:00
10:56 AM,78.1,68.0,71,30.00,8.0,SSW,10.4,-,N/A,,Mostly Cloudy,210,2013-05-20 14:56:00
11:46 AM,78.8,69.8,74,30.01,9.0,SW,9.2,-,N/A,,Mostly Cloudy,220,2013-05-20 15:46:00
11:56 AM,80.1,69.1,69,29.99,9.0,SW,9.2,-,N/A,,Mostly Cloudy,230,2013-05-20 15:56:00
12:56 PM,81.0,69.1,67,29.99,9.0,SSW,8.1,-,N/A,,Mostly Cloudy,200,2013-05-20 16:56:00
1:19 PM,82.4,69.8,66,29.98,10.0,SSW,9.2,-,N/A,,Mostly Cloudy,200,2013-05-20 17:19:00
1:56 PM,84.0,69.1,61,29.96,10.0,SSW,10.4,16.1,N/A,,Mostly Cloudy,210,2013-05-20 17:56:00
2:56 PM,84.9,66.9,55,29.95,10.0,South,13.8,-,N/A,,Mostly Cloudy,190,2013-05-20 18:56:00
3:56 PM,84.9,66.9,55,29.93,10.0,South,12.7,21.9,N/A,,Mostly Cloudy,180,2013-05-20 19:56:00
4:56 PM,84.9,66.0,53,29.92,10.0,SSW,12.7,-,N/A,,Mostly Cloudy,200,2013-05-20 20:56:00
5:56 PM,84.9,64.9,51,29.91,10.0,SSW,13.8,-,N/A,,Scattered Clouds,210,2013-05-20 21:56:00
6:56 PM,84.0,66.0,55,29.91,10.0,South,13.8,-,N/A,,Scattered Clouds,180,2013-05-20 22:56:00
7:56 PM,82.9,66.0,56,29.89,10.0,South,12.7,-,N/A,,Scattered Clouds,170,2013-05-20 23:56:00
8:56 PM,81.0,66.0,60,29.88,10.0,South,10.4,-,N/A,,Scattered Clouds,180,2013-05-21 00:56:00
9:56 PM,80.1,66.0,62,29.88,10.0,South,9.2,-,N/A,,Partly Cloudy,170,2013-05-21 01:56:00
10:56 PM,77.0,66.0,69,29.90,10.0,SSW,8.1,-,N/A,,Clear,200,2013-05-21 02:56:00
11:56 PM,77.0,64.9,66,29.89,10.0,South,10.4,-,N/A,,Clear,180,2013-05-21 03:56:00